Volver al catálogo

USA 386

ActivoMilitarVLEO
NORAD 60169·PAYLOAD·🇺🇸 United States

Lanzado Jun 29, 2024 desde Vandenberg Space Force Base

Loading…

Próximos Pases (próximas 24 horas)

TLE

ObsoletoSource: Mike McCants

Época: Aug 24, 2026, 00:53 UTC

1 60169U 24121M   26236.03709943 0.00000000  00000-0  00000-0 0    09
2 60169  70.0230 216.5874 0003000 260.8088  99.1912 14.96713199    05

Sigue USA 386 en tiempo real con AllMySat

Download on the App Store